Location: Gleizolles
(44.4833°N, 6.7667°E)
Time: 15:51:52
(UTC+00:00)

Tiros 1 - Pass Details

Date: 26 June 2024
Orbit: 624 x 656 km, 48.4° (Epoch: 13 July)

Event Time Altitude Azimuth Distance (km) Brightness Sun altitude
Rises 05:23:22 0° 281° (W) 2,925 10.0 14.0°
Reaches altitude 10° 05:27:03 10° 251° (WSW) 2,020 9.1 14.6°
Maximum altitude 05:28:53 12° 228° (SW) 1,877 9.1 14.9°
Drops below altitude 10° 05:30:43 10° 204° (SSW) 2,023 9.4 15.2°
Sets 05:34:26 0° 175° (S) 2,936 10.4 15.9°
